Regional Weather Roundup
Issued by NWS

Home | Current Version | Previous Version | Text Only | Print | Product List | Glossary On
Versions: 1 2 3 4 5 6 7 8 9 10 11 12 13 14 15 16 17 18 19 20 21 22 23 24 25 26 27 28 29 30 31 32 33 34 35 36 37 38 39 40 41 42 43 44 45 46 47 48 49 50
000
ASUS45 KPSR 171010
RWRAZ

ARIZONA REGIONAL HOURLY WEATHER ROUNDUP
NATIONAL WEATHER SERVICE PHOENIX AZ
300 AM MST WED SEP 17 2014

NOTE: FAIR INDICATES FEW OR NO CLOUDS BELOW 12,000 FEET WITH NO
SIGNIFICANT WEATHER AND/OR OBSTRUCTIONS TO VISIBILITY.

AZZ001>003-036-171100-
NORTHWEST ARIZONA

CITY           SKY/WX    TMP DP  RH WIND       PRES   REMARKS
BULLHEAD CITY  MOCLDY    81  70  69 CALM      29.80S
KINGMAN        MOCLDY    72  57  59 SE6       29.97S
$$

AZZ004>008-015-016-018-171100-
NORTH CENTRAL ARIZONA

CITY           SKY/WX    TMP DP  RH WIND       PRES   REMARKS
GRAND CANYON   CLOUDY    61  50  67 CALM      30.19S
PRESCOTT       CLOUDY    67  56  67 SE8       30.08F
FLAGSTAFF      CLOUDY    57  54  89 CALM      30.21F
PAYSON         DRIZZLE   64  61  88 VRB3      30.11F
PAGE           CLOUDY    73  54  51 S9        30.04F
$$

AZZ009>014-017-171100-
NORTHEAST ARIZONA

CITY           SKY/WX    TMP DP  RH WIND       PRES   REMARKS
WINSLOW        CLOUDY    65  62  90 E3        30.10F
SAINT JOHNS    CLOUDY    61  60  97 E5        30.14F
SHOW LOW       CLOUDY    57  55  94 S3        30.20F
$$

AZZ023-171100-
GREATER PHOENIX AREA

CITY           SKY/WX    TMP DP  RH WIND       PRES   REMARKS
PHOENIX        CLOUDY    82  67  60 E7        29.81F
BUCKEYE          N/A     82  64  54 NE8       29.80F
LUKE AFB       CLOUDY    82  66  57 N6        29.81F
DEER VALLEY    CLOUDY    81  64  56 E6        29.83F
SCOTTSDALE     CLOUDY    82  65  56 E6        29.85F
MESA-GATEWAY   LGT RAIN N/A N/A N/A CALM      29.85F
$$

AZZ027-028-171100-
SOUTHWEST MARICOPA COUNTY AND PINAL COUNTY

CITY           SKY/WX    TMP DP  RH WIND       PRES   REMARKS
CASA GRANDE    CLOUDY    77  66  69 E12       29.83F
$$

AZZ503-504-507>509-171100-
SOUTHEAST ARIZONA

CITY           SKY/WX    TMP DP  RH WIND       PRES   REMARKS
TUCSON         CLOUDY    73  69  87 S9        29.91S
DAVIS-MONTHAN  LGT RAIN  74  67  77 E5        29.88F
NOGALES        CLOUDY    67  66  97 SE3       29.95F
SIERRA VISTA   CLOUDY    64  64 100 E8        30.02F
DOUGLAS        CLOUDY    68  64  87 CALM      30.00F
SAFFORD        LGT RAIN  69  65  86 E8        29.97F
$$

AZZ020-021-025-026-031-171100-
SOUTHWEST ARIZONA

CITY           SKY/WX    TMP DP  RH WIND       PRES   REMARKS
YUMA           PTCLDY    88  64  44 VRB7      29.73F
$$

CAZ031-033-041-043-047-048-061-171100-
SOUTHERN CALIFORNIA

CITY           SKY/WX    TMP DP  RH WIND       PRES   REMARKS
DOWNTOWN L.A.  CLEAR     78  62  57 CALM      29.71F
L.A. AIRPORT   CLEAR     74  64  71 W6        29.72F
SAN DIEGO      CLEAR     77  70  79 NW3       29.72S
BURBANK        CLEAR     82  57  42 CALM      29.74F
ONTARIO        CLEAR     85  65  51 CALM      29.76F
RIVERSIDE      CLEAR     85  66  53 E3        29.76S
PALM SPRINGS   CLEAR     87  67  51 CALM      29.77F
EL CENTRO NAS  CLEAR     84  63  49 E3        29.72S
IMPERIAL       CLEAR     84  65  52 CALM      29.72S
BLYTHE         CLEAR     81  72  74 N8        29.76F
NEEDLES        PTCLDY    81  70  69 SE3       29.79F
$$

NVZ020-UTZ003-171100-
SOUTHERN NEVADA-UTAH

CITY           SKY/WX    TMP DP  RH WIND       PRES   REMARKS
LAS VEGAS      CLOUDY    82  56  40 S8        29.82R
SALT LAKE CITY PTCLDY    74  42  31 S14       29.94F
$$

NMZ009-TXZ055-171100-
NEW MEXICO-WEST TEXAS

CITY           SKY/WX    TMP DP  RH WIND       PRES   REMARKS
ALBUQUERQUE    CLOUDY    63  54  72 CALM      30.18F
EL PASO        CLOUDY    69  63  81 N12       30.05F
$$


........................KEY........................
SKY/WX - SKY CONDITION/WEATHER
TMP    - TEMPERATURE IN FAHRENHEIT
DP     - DEW POINT IN FAHRENHEIT
RH     - RELATIVE HUMIDITY IN PERCENT
WIND   - DIRECTION AND SPEED IN MILES PER HOUR (MPH)
VRB    - VARIABLE WIND DIRECTION
PRES   - MEAN SEA LEVEL PRESSURE IN INCHES OF MERCURY
         F - FALLING PRESSURE   R - RISING PRESSURE
         S - STEADY PRESSURE
VSB    - VISIBILITY IN MILES
HX     - HEAT INDEX IN FAHRENHEIT
WCI    - WIND CHILL INDEX IN FAHRENHEIT
TC     - TEMPERATURE IN CELSIUS WHICH IS ALSO KNOWN AS
         TEMPERATURE IN CENTIGRADE
AFB    - AIR FORCE BASE
         LUKE AFB IS LUKE AIR FORCE BASE
         DAVIS-MONTHAN IS DAVIS-MONTHAN AIR FORCE BASE
NAS    - NAVAL AIR STATION
         EL CENTRO NAS IS EL CENTRO NAVAL AIR STATION
N/A    - NOT AVAILABLE



USA.gov is the U.S. government's official web portal to all federal, state and local government web resources and services.